Theta_e
349 351 352 347 347 350 348 347 349 351 351 348 347 344 343 342 344 342 342 340 336 339 338 336 336 334 329 328 327 326 324 323 323 328 334 339 341 341 344 349 350 349 350
348 351 350 349 349 349 348 347 350 349 350 348 346 344 341 341 342 339 339 338 337 335 336 335 334 330 329 327 324 322 322 322 322 325 331 335 338 340 340 342 346 347 347
346 343 347 348 347 348 348 349 348 348 346 346 345 342 341 341 341 340 339 338 338 337 336 333 333 331 327 325 324 321 321 320 320 320 327 334 337 339 340 343 342 343 345
340 342 346 346 347 347 349 350 348 347 346 345 345 344 341 341 340 339 338 337 335 336 336 333 332 330 327 324 322 321 319 317 318 318 320 327 334 336 338 336 339 345 344
343 344 346 349 348 349 348 348 347 347 346 346 344 343 343 340 335 339 338 337 336 334 335 333 331 332 329 327 323 322 319 316 316 316 317 320 325 332 333 334 336 339 343
337 342 347 347 346 346 347 348 347 347 346 346 342 341 341 337 329 333 334 336 335 333 331 332 331 331 330 328 326 325 322 317 315 315 316 315 318 327 334 334 334 335 333
344 344 345 346 345 346 346 346 346 347 346 344 342 341 340 339 326 327 331 333 332 331 332 331 329 330 329 327 326 324 323 321 321 319 317 318 319 323 331 334 333 333 333
344 344 344 345 344 346 345 345 347 346 345 342 340 341 339 337 324 323 327 331 332 332 332 331 328 328 329 327 324 322 322 319 320 321 321 321 322 326 327 335 336 335 339
342 343 344 344 344 344 344 344 346 343 342 341 341 339 337 338 323 319 322 330 330 329 333 331 330 327 325 320 320 320 317 318 322 321 320 320 321 323 325 331 332 330 331
341 343 345 346 345 344 344 344 342 346 341 336 335 338 333 339 319 318 323 322 323 326 330 331 323 321 315 312 316 317 316 317 317 319 319 323 321 321 322 325 331 331 329
344 345 346 347 347 347 348 346 343 338 336 337 337 337 337 334 329 320 317 323 324 325 323 324 328 314 308 308 309 318 314 315 318 319 317 319 328 325 324 327 334 338 332
349 347 348 349 342 337 346 344 338 341 336 335 335 330 328 330 319 318 317 315 319 322 322 324 326 306 305 307 312 312 313 315 317 317 316 316 317 329 329 336 336 338 342
354 352 351 352 347 348 343 339 339 335 334 336 330 325 323 327 330 318 314 312 314 317 324 319 310 306 307 310 310 311 314 315 314 314 315 316 317 321 333 338 340 339 339
351 351 351 348 348 345 340 341 330 335 331 329 324 328 327 328 320 315 317 320 318 320 317 318 318 313 309 311 312 313 313 313 315 314 315 318 319 317 319 324 336 337 335
347 348 347 341 340 337 320 317 328 312 312 322 318 320 317 319 310 301 301 309 312 309 303 318 323 316 310 309 310 312 311 312 311 315 315 316 317 315 316 318 322 329 332
341 338 336 335 326 334 324 317 301 300 297 296 297 305 309 301 298 296 296 296 297 298 311 317 313 312 309 307 307 308 310 311 310 311 314 313 317 316 314 316 317 316 315
338 337 333 325 330 330 330 328 323 309 301 299 299 299 299 298 297 296 297 298 302 304 315 311 309 309 307 306 305 307 306 308 311 310 310 311 312 317 316 314 315 314 313
334 316 329 329 329 329 327 325 324 324 319 318 301 302 299 300 299 298 298 303 314 311 311 308 306 305 304 304 304 304 305 306 307 310 310 309 311 312 317 316 315 314 313
329 327 329 328 325 322 323 321 319 318 317 316 316 304 304 299 300 300 302 311 309 307 306 302 301 298 297 297 297 298 302 300 302 306 307 307 307 308 309 317 317 312 312
327 319 321 327 322 322 319 318 317 315 313 313 311 307 307 308 308 308 308 307 306 305 302 299 297 295 295 295 294 295 296 300 301 301 305 306 307 306 307 311 314 312 315
322 323 317 324 320 318 316 315 314 314 313 311 308 304 296 307 305 306 306 306 306 306 307 306 304 302 299 299 296 295 296 297 300 301 301 302 303 307 307 307 308 310 307
320 320 320 321 318 318 317 317 314 312 311 309 307 305 298 306 304 304 306 307 307 309 307 306 304 302 301 299 295 294 294 295 298 299 300 300 300 302 304 307 306 305 305
320 319 317 312 311 308 312 312 312 311 311 310 309 306 305 305 304 303 304 307 308 305 304 302 301 299 299 297 295 293 291 291 294 296 295 299 299 300 300 302 303 303 304
315 313 312 312 312 311 311 310 310 305 306 307 307 306 305 306 305 304 304 305 305 302 302 301 299 296 295 294 293 291 289 287 291 291 294 300 297 298 299 299 299 299 302
313 313 312 311 311 309 309 308 308 307 306 305 305 304 304 304 303 303 302 302 301 301 300 299 299 296 294 292 290 288 285 283 288 285 292 299 299 297 299 298 299 299 299
312 311 311 310 308 308 306 306 306 306 305 305 304 303 303 302 301 300 300 300 300 299 299 299 298 297 295 291 288 285 283 283 285 284 288 299 295 297 296 298 298 297 299
Wind_Speed
8 8 5 4 5 5 4 4 4 4 3 4 5 5 6 8 6 5 5 7 8 3 4 5 3 4 6 6 7 8 9 9 15 14 12 12 9 10 8 10 11 9 7
9 7 7 5 4 3 4 4 3 4 4 4 5 6 7 8 6 6 5 6 5 6 5 5 3 3 5 5 6 10 9 11 13 18 13 11 12 12 12 13 10 11 1
10 8 7 6 6 5 5 4 4 4 5 6 5 6 7 7 7 7 7 5 5 6 5 5 3 3 5 5 6 7 8 9 10 12 13 11 11 10 9 10 10 10 10
13 11 9 8 7 5 5 5 4 6 6 5 5 6 7 8 8 10 6 6 7 7 5 5 5 5 5 6 7 8 8 10 10 10 11 13 10 12 9 8 9 8 10
8 7 7 7 7 7 6 5 6 6 5 5 6 7 7 7 8 4 2 6 6 7 6 6 7 7 8 9 7 9 8 9 9 10 11 11 11 12 11 9 9 9 10
7 9 7 7 8 8 7 6 7 6 5 5 6 6 6 6 1 6 6 5 6 7 8 6 7 9 11 13 16 14 11 11 14 11 12 14 14 12 13 10 8 9 9
7 6 7 7 7 7 7 7 5 3 5 5 5 7 7 7 8 9 9 5 7 8 7 7 9 7 10 10 11 12 12 18 19 18 17 15 16 15 14 15 12 10 12
10 10 9 8 8 8 8 7 5 5 5 6 7 6 6 8 8 7 9 8 8 9 10 9 10 10 11 11 9 10 12 16 17 15 18 19 18 16 16 13 13 12 10
12 11 10 9 9 9 8 6 6 6 6 6 7 7 7 7 7 6 8 8 11 10 7 9 8 9 10 7 7 9 13 18 18 28 30 32 33 30 21 10 12 12 12
13 12 10 10 9 9 8 7 5 3 4 6 9 7 6 3 4 7 2 2 10 11 8 8 9 4 7 7 6 8 12 17 20 24 20 21 24 23 30 18 12 11 11
11 11 10 10 8 8 6 4 3 4 3 7 7 7 7 3 4 8 6 3 7 7 8 7 3 4 9 10 6 7 11 17 21 19 17 14 7 12 13 15 15 10 10
7 7 7 8 7 5 5 4 5 4 7 8 6 6 6 4 3 4 7 9 11 7 9 7 4 10 8 8 9 13 16 18 12 14 15 14 12 4 11 11 15 12 8
1 5 5 4 5 4 4 6 5 7 8 3 4 6 4 4 3 2 7 10 13 6 7 7 8 8 8 7 13 15 12 10 12 13 14 13 13 11 8 9 10 14 12
4 5 4 3 3 4 5 3 3 4 2 2 3 2 3 2 4 5 6 7 8 8 10 8 3 8 11 8 8 9 7 8 10 11 13 13 12 14 11 6 8 9 8
6 2 4 6 7 8 11 10 4 5 5 4 5 5 5 5 4 3 3 6 7 7 10 5 1 5 7 7 8 8 8 8 10 11 10 12 13 15 13 12 7 4 8
5 5 5 3 5 5 8 7 14 11 9 11 7 6 4 6 5 7 7 11 13 7 3 4 7 8 7 7 8 8 8 10 9 9 10 12 10 12 13 12 11 10 9
4 6 4 4 4 4 3 3 4 3 4 6 6 5 6 2 6 8 10 8 13 10 6 8 7 6 5 5 7 6 7 7 6 8 10 10 11 9 11 12 12 10 12
4 4 4 4 1 4 4 2 2 2 2 2 3 2 5 6 6 11 16 7 4 7 7 8 6 7 7 8 8 8 9 9 9 8 9 10 10 11 8 7 7 9 10
3 3 3 4 7 5 3 3 4 2 2 1 4 2 4 7 6 9 13 6 6 7 7 7 7 7 6 7 7 8 8 8 9 9 8 8 9 9 10 9 9 10 8
3 5 6 1 6 4 4 3 1 2 1 3 4 4 4 5 5 5 4 4 5 5 4 5 4 3 3 3 5 6 7 6 8 8 9 8 8 8 8 9 8 9 9
4 5 2 6 5 4 3 3 4 4 4 4 5 5 4 3 4 3 2 3 3 2 3 4 4 3 4 1 1 3 6 7 8 8 8 8 9 8 7 8 10 8 7
5 4 4 3 4 4 4 6 4 4 2 5 6 5 1 3 2 1 3 2 1 1 4 5 5 5 6 6 6 7 8 8 9 9 9 8 8 7 7 6 8 8 9
3 4 4 4 4 4 4 5 5 1 3 4 4 8 7 4 3 2 3 3 1 4 4 5 5 5 6 6 6 7 6 6 9 9 9 7 8 6 6 6 7 7 9
5 5 4 2 4 3 5 6 4 3 3 4 3 2 2 8 5 3 4 0 4 4 4 4 6 8 7 7 6 7 6 7 7 8 12 7 8 10 6 6 5 9 6
5 6 4 4 5 6 5 5 6 3 4 5 2 2 2 1 1 2 3 4 3 4 4 4 4 9 8 10 10 10 9 8 9 10 8 9 8 12 9 7 7 6 9
3 3 5 4 4 3 3 4 5 2 3 3 3 2 1 2 1 2 3 1 2 5 2 4 4 6 10 8 8 10 8 11 13 15 10 6 8 7 8 8 11 7 7
Wind_Direction
186 175 160 157 185 178 193 221 239 264 267 272 274 276 283 288 280 281 269 255 267 293 309 302 343 357 349 333 333 324 305 312 284 276 270 262 234 241 240 224 227 231 238
180 173 160 169 193 207 196 225 248 263 264 268 263 269 280 284 280 298 282 306 306 290 288 286 315 1 334 331 329 315 311 303 324 275 271 264 252 239 248 240 220 236 47
185 162 162 173 180 197 214 226 242 249 251 255 267 275 281 281 279 258 250 269 275 270 273 292 305 338 297 305 302 304 307 313 322 315 295 265 258 254 251 235 215 216 199
178 176 168 171 183 201 214 219 231 245 255 272 275 268 272 270 267 262 256 254 265 266 269 277 272 244 272 302 301 304 307 313 317 314 301 297 260 253 242 241 235 231 205
161 148 159 161 177 190 214 215 238 254 262 262 269 269 272 273 279 353 284 252 254 265 257 261 259 245 239 256 271 287 304 304 306 305 293 290 287 256 240 231 225 225 236
162 166 167 180 181 195 214 215 220 237 254 276 288 280 282 290 97 238 264 281 274 267 273 262 272 283 254 242 258 264 281 297 296 297 286 280 275 280 259 237 225 214 219
172 189 178 190 191 201 213 219 213 243 265 272 290 286 280 282 240 249 245 254 268 276 283 275 277 277 283 273 263 267 289 297 271 274 277 270 267 258 264 248 235 224 224
185 196 194 194 199 205 213 217 207 215 237 259 262 266 278 281 243 251 252 256 267 270 271 272 277 286 281 275 298 290 300 298 299 293 278 267 262 259 243 256 243 229 233
195 199 199 198 205 212 217 214 214 231 236 241 252 262 273 275 341 360 343 312 300 289 283 268 278 287 295 352 308 298 305 309 312 307 290 268 255 250 253 249 246 232 231
199 198 196 204 208 217 222 209 202 215 279 276 277 284 302 44 84 171 133 29 291 294 289 283 289 352 335 350 329 312 315 321 311 311 311 299 241 234 231 231 225 223 221
194 194 198 204 202 211 201 151 169 235 273 291 309 314 300 299 292 205 208 251 277 295 305 304 331 23 21 350 332 341 325 312 320 322 323 331 278 203 215 210 211 222 211
193 200 204 199 202 187 198 158 213 202 251 256 267 266 288 258 333 200 223 244 274 281 283 290 326 46 9 13 359 328 329 326 329 322 332 348 350 280 201 200 204 210 219
245 202 217 212 171 190 209 179 202 229 238 238 234 261 293 63 82 313 305 287 283 255 272 323 326 69 26 20 347 336 335 335 335 332 328 343 352 338 287 193 206 201 209
245 240 224 178 229 241 247 220 226 295 136 185 263 3 354 78 46 7 339 309 334 341 4 322 346 102 53 360 351 351 343 338 324 332 338 334 352 4 0 352 206 190 204
317 272 234 231 215 228 59 354 66 52 47 20 39 355 10 359 35 275 289 324 326 324 318 306 9 52 31 6 355 354 349 346 344 341 340 344 5 1 10 11 358 0 219
261 222 236 264 274 163 144 129 50 91 94 97 94 56 104 99 338 322 291 287 295 280 284 21 41 41 25 4 349 354 355 355 349 334 347 351 1 5 5 14 25 35 20
245 285 286 235 307 103 76 63 121 85 64 97 100 89 69 281 326 329 331 308 289 332 43 46 39 25 19 358 350 356 351 345 335 348 356 356 354 353 3 15 20 28 31
255 211 258 290 94 91 99 68 153 190 172 134 197 215 243 265 16 348 339 340 47 60 50 48 30 21 12 2 357 4 355 353 358 3 5 358 354 2 4 7 23 31 41
274 10 136 67 36 46 79 68 37 84 137 74 98 211 213 278 335 19 9 21 36 44 48 49 31 27 19 0 350 344 358 353 350 351 6 9 10 -0 0 8 17 24 37
137 20 337 151 135 109 95 104 60 42 255 220 76 24 16 16 41 50 43 31 44 43 95 92 78 51 27 1 349 343 346 345 349 354 358 7 7 9 9 4 35 21 12
128 126 86 116 118 109 159 199 212 229 208 104 88 70 9 44 48 48 6 38 18 64 57 38 52 132 138 116 311 345 352 353 358 356 5 7 359 1 16 15 23 29 26
59 159 165 150 202 182 213 217 204 233 221 139 148 134 222 108 105 347 311 323 12 282 49 54 10 34 37 32 35 13 4 358 357 358 353 359 358 3 6 27 24 24 28
143 146 113 82 116 149 246 263 256 290 243 191 173 158 178 173 168 190 266 272 88 53 45 61 38 40 25 45 46 41 20 7 335 348 342 338 358 354 9 11 25 21 26
132 159 169 193 230 255 302 304 108 78 323 285 192 232 204 155 160 115 231 292 74 67 58 85 86 57 36 39 34 43 30 5 329 341 330 344 10 350 16 9 19 19 23
214 201 212 249 202 214 223 225 284 213 196 227 187 200 183 193 164 146 113 114 101 125 110 78 69 97 71 54 46 29 3 353 348 335 338 333 36 4 2 13 12 22 21
240 240 251 257 266 255 288 276 257 227 232 211 211 213 211 216 147 122 136 117 121 113 85 92 109 101 102 71 49 16 1 356 353 343 334 33 13 24 3 10 17 14 30